QPF
0.00 0.00 0.00 0.00 0.00 0.00 0.00 0.00 0.00 0.00 0.00 0.00 0.00 0.00 0.00 0.00 0.00 0.00 0.00 0.00 0.00 0.00 0.00 0.00 0.00 0.00 0.00 0.00 0.00 0.00 0.00 0.00 0.00 0.00 0.00 0.00 0.00 0.00 0.00 0.00 0.00 0.00 0.00
0.00 0.00 0.00 0.00 0.00 0.00 0.00 0.00 0.00 0.00 0.00 0.00 0.00 0.00 0.00 0.00 0.00 0.00 0.00 0.00 0.00 0.00 0.00 0.00 0.00 0.00 0.00 0.00 0.00 0.00 0.00 0.00 0.00 0.00 0.00 0.00 0.00 0.00 0.00 0.00 0.00 0.00 0.00
0.00 0.00 0.00 0.00 0.00 0.00 0.00 0.00 0.00 0.00 0.00 0.00 0.00 0.00 0.00 0.00 0.00 0.00 0.00 0.00 0.00 0.00 0.00 0.00 0.00 0.00 0.00 0.00 0.00 0.00 0.00 0.00 0.00 0.00 0.00 0.00 0.00 0.00 0.00 0.00 0.00 0.00 0.00
0.00 0.00 0.00 0.00 0.00 0.00 0.00 0.00 0.00 0.00 0.00 0.00 0.00 0.00 0.00 0.00 0.00 0.00 0.00 0.00 0.00 0.00 0.00 0.00 0.00 0.00 0.00 0.00 0.00 0.00 0.00 0.00 0.00 0.00 0.00 0.00 0.00 0.00 0.00 0.00 0.00 0.00 0.00
0.00 0.00 0.00 0.00 0.00 0.00 0.00 0.00 0.00 0.00 0.00 0.00 0.00 0.00 0.00 0.00 0.00 0.00 0.00 0.00 0.00 0.00 0.00 0.00 0.00 0.00 0.00 0.00 0.00 0.00 0.00 0.00 0.00 0.00 0.00 0.00 0.00 0.00 0.00 0.00 0.00 0.00 0.00
0.01 0.00 0.00 0.00 0.00 0.00 0.00 0.00 0.00 0.00 0.00 0.00 0.00 0.00 0.00 0.00 0.00 0.00 0.00 0.00 0.00 0.00 0.00 0.00 0.00 0.00 0.00 0.00 0.00 0.00 0.00 0.00 0.00 0.00 0.00 0.00 0.00 0.00 0.00 0.00 0.00 0.00 0.00
0.00 0.01 0.00 0.00 0.00 0.00 0.00 0.00 0.00 0.00 0.00 0.00 0.00 0.00 0.00 0.00 0.00 0.00 0.00 0.00 0.00 0.00 0.00 0.00 0.00 0.00 0.00 0.00 0.00 0.00 0.00 0.00 0.00 0.00 0.00 0.00 0.00 0.00 0.00 0.00 0.00 0.00 0.00
0.00 0.00 0.02 0.01 0.00 0.00 0.00 0.00 0.00 0.00 0.00 0.00 0.00 0.00 0.00 0.00 0.00 0.00 0.00 0.00 0.00 0.00 0.00 0.00 0.00 0.00 0.00 0.00 0.00 0.00 0.00 0.00 0.00 0.00 0.00 0.00 0.00 0.00 0.00 0.00 0.00 0.00 0.00
0.00 0.01 0.03 0.04 0.08 0.03 0.00 0.00 0.00 0.00 0.00 0.00 0.00 0.00 0.00 0.00 0.00 0.00 0.00 0.00 0.00 0.00 0.00 0.00 0.00 0.00 0.00 0.00 0.00 0.00 0.00 0.00 0.00 0.00 0.00 0.00 0.00 0.00 0.00 0.00 0.00 0.00 0.00
0.01 0.02 0.03 0.04 0.06 0.05 0.02 0.03 0.01 0.00 0.00 0.00 0.00 0.00 0.00 0.00 0.00 0.00 0.00 0.00 0.00 0.00 0.00 0.00 0.00 0.00 0.00 0.00 0.00 0.00 0.00 0.00 0.00 0.00 0.00 0.00 0.00 0.00 0.00 0.00 0.00 0.00 0.00
0.00 0.01 0.05 0.04 0.02 0.03 0.04 0.03 0.04 0.03 0.04 0.01 0.02 0.01 0.00 0.00 0.00 0.00 0.00 0.00 0.00 0.00 0.00 0.00 0.00 0.00 0.00 0.00 0.00 0.00 0.00 0.00 0.00 0.00 0.00 0.00 0.00 0.00 0.00 0.00 0.00 0.00 0.00
0.00 0.01 0.03 0.05 0.07 0.04 0.05 0.05 0.06 0.06 0.05 0.04 0.03 0.02 0.01 0.00 0.00 0.00 0.00 0.00 0.00 0.00 0.00 0.00 0.00 0.00 0.00 0.00 0.00 0.00 0.00 0.00 0.00 0.00 0.00 0.00 0.00 0.00 0.00 0.00 0.00 0.00 0.00
0.00 0.00 0.02 0.03 0.04 0.05 0.07 0.07 0.06 0.07 0.05 0.04 0.03 0.02 0.01 0.00 0.00 0.00 0.00 0.00 0.00 0.00 0.00 0.00 0.00 0.00 0.00 0.00 0.00 0.00 0.00 0.00 0.00 0.00 0.00 0.00 0.00 0.00 0.00 0.00 0.00 0.00 0.00
0.00 0.00 0.00 0.00 0.02 0.03 0.04 0.06 0.07 0.08 0.07 0.05 0.03 0.02 0.00 0.00 0.00 0.00 0.00 0.00 0.00 0.00 0.00 0.00 0.00 0.00 0.00 0.00 0.00 0.00 0.00 0.00 0.00 0.00 0.00 0.00 0.00 0.00 0.00 0.00 0.00 0.00 0.00
0.00 0.00 0.00 0.00 0.00 0.01 0.03 0.05 0.08 0.08 0.06 0.04 0.02 0.01 0.00 0.00 0.00 0.00 0.00 0.00 0.00 0.00 0.00 0.00 0.00 0.00 0.00 0.00 0.00 0.00 0.00 0.00 0.00 0.00 0.00 0.00 0.00 0.00 0.00 0.00 0.00 0.00 0.00
0.00 0.00 0.00 0.00 0.00 0.00 0.00 0.01 0.02 0.04 0.04 0.02 0.01 0.00 0.00 0.00 0.00 0.00 0.00 0.00 0.00 0.00 0.00 0.00 0.00 0.00 0.00 0.00 0.00 0.00 0.00 0.00 0.00 0.00 0.00 0.00 0.00 0.00 0.00 0.00 0.00 0.00 0.00
0.00 0.00 0.00 0.00 0.00 0.00 0.00 0.00 0.01 0.01 0.00 0.01 0.01 0.00 0.00 0.00 0.00 0.00 0.00 0.00 0.00 0.00 0.00 0.00 0.00 0.00 0.00 0.00 0.00 0.00 0.00 0.00 0.00 0.00 0.00 0.00 0.00 0.00 0.00 0.00 0.00 0.00 0.00
0.00 0.00 0.00 0.00 0.00 0.00 0.00 0.00 0.00 0.00 0.00 0.00 0.00 0.00 0.00 0.00 0.00 0.00 0.00 0.00 0.00 0.00 0.00 0.00 0.00 0.00 0.00 0.00 0.00 0.00 0.00 0.00 0.00 0.00 0.00 0.00 0.00 0.00 0.00 0.00 0.00 0.00 0.00
0.00 0.00 0.00 0.00 0.00 0.00 0.00 0.00 0.00 0.00 0.00 0.00 0.00 0.00 0.00 0.00 0.00 0.00 0.00 0.00 0.00 0.00 0.00 0.00 0.00 0.00 0.00 0.00 0.00 0.00 0.00 0.00 0.00 0.00 0.00 0.00 0.00 0.00 0.00 0.00 0.00 0.00 0.00
0.00 0.00 0.00 0.00 0.00 0.00 0.00 0.00 0.01 0.01 0.01 0.00 0.00 0.00 0.00 0.00 0.00 0.00 0.00 0.00 0.00 0.00 0.00 0.00 0.00 0.00 0.00 0.00 0.00 0.00 0.00 0.00 0.00 0.00 0.00 0.00 0.00 0.00 0.00 0.00 0.00 0.00 0.00
0.00 0.00 0.00 0.00 0.00 0.00 0.01 0.02 0.02 0.02 0.01 0.00 0.00 0.00 0.00 0.00 0.00 0.00 0.00 0.00 0.00 0.00 0.00 0.00 0.00 0.00 0.00 0.00 0.00 0.00 0.00 0.00 0.00 0.00 0.00 0.00 0.00 0.00 0.00 0.00 0.00 0.00 0.00
0.00 0.00 0.01 0.00 0.01 0.01 0.02 0.01 0.01 0.00 0.00 0.00 0.00 0.00 0.00 0.00 0.00 0.00 0.00 0.00 0.00 0.00 0.00 0.00 0.00 0.00 0.00 0.00 0.00 0.00 0.00 0.00 0.00 0.00 0.00 0.00 0.00 0.00 0.00 0.00 0.00 0.00 0.00
0.00 0.00 0.00 0.00 0.00 0.00 0.00 0.00 0.00 0.00 0.00 0.00 0.00 0.00 0.00 0.00 0.00 0.00 0.00 0.00 0.00 0.00 0.00 0.00 0.00 0.00 0.00 0.00 0.00 0.00 0.00 0.00 0.00 0.00 0.00 0.00 0.00 0.00 0.00 0.00 0.00 0.00 0.00
0.00 0.00 0.00 0.00 0.00 0.00 0.00 0.00 0.00 0.00 0.00 0.00 0.00 0.00 0.00 0.00 0.00 0.00 0.00 0.00 0.00 0.00 0.00 0.00 0.00 0.00 0.00 0.00 0.00 0.00 0.00 0.00 0.00 0.00 0.00 0.00 0.00 0.00 0.00 0.00 0.00 0.00 0.00
0.00 0.00 0.00 0.00 0.00 0.00 0.00 0.00 0.00 0.00 0.00 0.00 0.00 0.00 0.00 0.00 0.00 0.00 0.00 0.00 0.00 0.00 0.00 0.00 0.00 0.00 0.00 0.00 0.00 0.00 0.00 0.00 0.00 0.00 0.00 0.00 0.00 0.00 0.00 0.00 0.00 0.00 0.00
0.00 0.00 0.00 0.00 0.00 0.00 0.00 0.00 0.00 0.00 0.00 0.00 0.00 0.00 0.00 0.00 0.00 0.00 0.00 0.00 0.00 0.00 0.00 0.00 0.00 0.00 0.00 0.00 0.00 0.00 0.00 0.00 0.00 0.00 0.00 0.00 0.00 0.00 0.00 0.00 0.00 0.00 0.00
MSLP
1017.52 1017.64 1018.00 1018.32 1018.51 1018.73 1018.81 1018.94 1019.06 1019.35 1019.56 1019.68 1019.82 1019.93 1020.12 1020.16 1020.46 1020.64 1020.59 1021.25 1021.34 1021.68 1021.92 1022.12 1022.20 1022.39 1022.56 1022.56 1022.75 1022.76 1022.89 1023.01 1022.97 1022.94 1022.97 1022.97 1022.97 1022.93 1022.84 1022.72 1022.62 1022.47 1022.28
1017.11 1017.31 1017.73 1018.00 1018.20 1018.51 1018.64 1018.76 1018.92 1019.21 1019.43 1019.59 1019.80 1020.09 1020.27 1020.55 1020.56 1020.65 1020.47 1021.23 1021.70 1021.87 1022.06 1022.29 1022.49 1022.47 1022.61 1022.60 1022.70 1022.85 1023.02 1023.11 1023.23 1023.25 1023.22 1023.13 1023.09 1023.07 1022.97 1022.89 1022.80 1022.69 1022.52
1016.92 1017.11 1017.20 1017.55 1017.96 1018.19 1018.37 1018.59 1018.84 1019.21 1019.36 1019.65 1019.90 1020.09 1020.35 1020.49 1020.68 1020.75 1020.66 1020.71 1021.79 1022.00 1022.09 1022.30 1022.53 1022.65 1022.70 1022.77 1022.88 1023.02 1023.06 1023.18 1023.26 1023.40 1023.47 1023.43 1023.35 1023.23 1023.06 1022.90 1022.85 1022.81 1022.67
1016.55 1016.74 1016.89 1017.05 1017.38 1017.78 1018.11 1018.34 1018.70 1019.07 1019.29 1019.56 1019.82 1020.11 1020.30 1020.61 1020.62 1020.73 1020.90 1020.97 1021.14 1021.47 1022.23 1022.41 1022.70 1022.88 1022.94 1022.96 1022.95 1023.09 1023.18 1023.17 1023.19 1023.29 1023.39 1023.44 1023.38 1023.34 1023.17 1022.95 1022.74 1022.70 1022.62
1016.03 1016.29 1016.33 1016.48 1016.81 1017.33 1017.64 1018.00 1018.41 1018.75 1019.03 1019.40 1019.71 1020.11 1020.31 1020.46 1020.68 1020.76 1020.82 1021.09 1021.37 1021.55 1021.57 1022.49 1022.83 1023.04 1023.11 1023.15 1023.17 1023.12 1023.19 1023.31 1023.23 1023.18 1023.28 1023.29 1023.30 1023.25 1023.11 1022.94 1022.69 1022.47 1022.37
1015.39 1015.68 1015.83 1015.99 1016.19 1016.83 1017.26 1017.58 1018.11 1018.59 1018.76 1019.04 1019.56 1019.95 1020.19 1020.39 1020.54 1020.67 1020.71 1021.02 1021.37 1021.74 1021.88 1022.11 1022.74 1022.96 1023.20 1023.19 1023.34 1023.29 1023.24 1023.30 1023.25 1023.15 1023.06 1023.04 1023.01 1023.02 1023.02 1022.82 1022.58 1022.30 1022.08
1014.48 1015.02 1015.16 1015.37 1015.54 1015.99 1016.58 1017.12 1017.72 1018.21 1018.79 1019.01 1019.43 1019.79 1020.10 1020.38 1020.47 1020.47 1020.58 1020.64 1021.11 1021.52 1021.68 1022.03 1022.28 1022.50 1023.12 1023.45 1023.50 1023.43 1023.37 1023.33 1023.22 1023.09 1023.03 1022.89 1022.72 1022.67 1022.66 1022.56 1022.38 1022.12 1021.82
1013.82 1014.12 1014.38 1014.52 1014.80 1015.44 1015.88 1016.45 1017.11 1017.79 1018.19 1018.82 1018.59 1018.81 1019.18 1019.78 1019.87 1020.07 1020.15 1020.30 1020.55 1021.11 1021.39 1021.73 1022.13 1022.39 1022.53 1022.79 1023.21 1023.56 1023.51 1023.36 1023.20 1023.01 1022.91 1022.77 1022.68 1022.56 1022.43 1022.25 1022.15 1021.94 1021.60
1013.19 1013.29 1013.61 1013.91 1014.34 1014.83 1015.03 1015.58 1016.38 1017.06 1017.43 1018.37 1018.19 1017.88 1018.33 1018.03 1018.67 1019.51 1019.83 1020.08 1020.30 1020.81 1021.13 1021.47 1021.90 1022.41 1022.60 1022.72 1023.36 1023.52 1023.66 1023.60 1023.38 1023.08 1022.91 1022.82 1022.61 1022.42 1022.30 1022.07 1021.81 1021.58 1021.28
1012.83 1012.81 1013.10 1013.12 1013.73 1014.03 1014.15 1014.56 1015.44 1016.01 1016.62 1017.18 1018.18 1018.09 1018.12 1017.64 1017.81 1018.89 1019.69 1019.94 1020.33 1020.64 1021.08 1021.55 1021.91 1022.46 1022.82 1022.88 1023.50 1023.61 1023.69 1023.74 1023.56 1023.23 1023.00 1022.81 1022.53 1022.26 1021.98 1021.73 1021.43 1021.13 1020.84
1012.15 1012.58 1012.63 1012.83 1013.18 1013.51 1013.81 1014.19 1014.86 1015.33 1015.59 1016.26 1016.54 1017.34 1017.89 1018.15 1018.20 1018.34 1018.53 1019.67 1020.50 1020.75 1021.06 1021.21 1021.65 1022.10 1022.64 1022.73 1023.00 1023.59 1023.72 1023.57 1023.50 1023.29 1023.03 1022.69 1022.34 1022.04 1021.72 1021.44 1021.12 1020.81 1020.53
1011.83 1012.23 1012.46 1012.59 1012.73 1013.04 1013.36 1013.61 1014.30 1014.81 1015.12 1015.51 1016.29 1016.52 1016.74 1017.37 1017.72 1018.10 1018.55 1019.11 1019.73 1020.72 1021.38 1021.79 1021.96 1022.43 1022.57 1022.87 1023.17 1023.52 1023.55 1023.50 1023.38 1023.11 1022.81 1022.55 1022.17 1021.86 1021.61 1021.39 1021.09 1020.71 1020.37
1011.34 1011.65 1011.96 1012.15 1012.29 1012.45 1012.83 1013.41 1013.94 1014.52 1014.76 1015.00 1015.47 1015.97 1016.64 1017.16 1017.52 1017.82 1018.33 1019.30 1019.85 1020.80 1021.47 1021.95 1021.75 1022.20 1022.73 1023.03 1022.74 1023.60 1023.37 1023.54 1023.32 1022.93 1022.64 1022.30 1022.06 1021.88 1021.65 1021.33 1020.94 1020.47 1020.08
1010.79 1011.27 1011.52 1011.77 1011.99 1012.26 1012.61 1012.97 1013.39 1013.89 1014.54 1015.01 1015.59 1016.27 1016.78 1017.43 1017.99 1018.38 1018.95 1019.32 1020.45 1021.03 1021.51 1021.97 1022.33 1022.44 1023.04 1023.46 1023.24 1023.29 1023.01 1023.03 1022.97 1022.75 1022.43 1022.24 1022.06 1021.79 1021.44 1021.12 1020.67 1020.18 1019.80
1010.54 1010.76 1011.14 1011.44 1011.67 1011.99 1012.42 1012.89 1013.33 1013.73 1014.41 1015.05 1015.87 1016.63 1017.21 1017.73 1018.37 1019.07 1019.49 1019.74 1020.18 1021.36 1021.62 1022.11 1022.60 1022.99 1023.46 1023.49 1023.76 1023.17 1022.83 1022.53 1022.64 1022.37 1021.89 1021.89 1021.81 1021.45 1020.98 1020.63 1020.18 1019.69 1019.29
1010.76 1011.05 1011.16 1011.44 1011.69 1012.00 1012.29 1012.68 1013.24 1013.77 1014.81 1015.66 1016.51 1016.94 1018.35 1018.59 1018.87 1019.37 1020.07 1020.31 1021.56 1021.52 1022.14 1022.99 1023.46 1023.05 1023.62 1023.93 1023.31 1023.17 1022.62 1022.38 1022.24 1021.90 1021.63 1021.48 1021.25 1020.88 1020.51 1020.07 1019.54 1019.00 1018.62
1011.35 1011.42 1011.60 1011.86 1012.10 1012.45 1012.82 1013.22 1013.68 1014.25 1015.06 1016.02 1016.79 1017.72 1018.51 1018.92 1019.23 1019.72 1020.57 1021.07 1021.73 1021.82 1022.79 1023.03 1023.48 1023.68 1023.19 1023.45 1022.99 1022.52 1022.09 1022.08 1021.54 1021.22 1021.15 1020.92 1020.66 1020.36 1019.87 1019.30 1018.88 1018.50 1018.15
1011.87 1011.99 1012.14 1012.32 1012.64 1012.91 1013.33 1013.86 1014.33 1014.91 1015.33 1016.11 1017.10 1018.02 1018.30 1019.74 1020.06 1020.48 1020.99 1021.74 1021.86 1022.35 1022.77 1023.03 1023.15 1023.09 1022.34 1023.01 1023.12 1022.58 1021.47 1021.35 1021.28 1020.92 1020.73 1020.52 1020.10 1019.63 1019.16 1018.82 1018.43 1017.98 1017.57
1012.60 1012.68 1012.80 1012.91 1013.22 1013.59 1013.98 1014.56 1014.94 1015.42 1016.20 1016.90 1017.82 1018.28 1019.20 1019.92 1020.48 1021.13 1021.50 1021.76 1022.21 1022.57 1022.74 1022.74 1023.02 1022.46 1022.65 1022.20 1022.16 1021.92 1021.29 1020.75 1020.54 1020.28 1019.91 1019.69 1019.25 1018.94 1018.60 1018.22 1017.81 1017.40 1017.02
1013.63 1013.65 1014.06 1014.07 1014.40 1014.80 1015.05 1015.49 1015.98 1016.06 1017.01 1017.89 1018.78 1019.41 1020.02 1020.39 1020.84 1021.24 1021.65 1021.96 1022.13 1022.44 1022.53 1022.67 1022.12 1021.60 1021.68 1021.58 1021.68 1021.45 1020.62 1020.29 1020.07 1019.69 1019.32 1018.93 1018.74 1018.34 1017.95 1017.58 1017.07 1016.72 1016.49
1014.97 1015.03 1015.06 1015.28 1015.60 1015.65 1015.97 1016.68 1017.33 1017.17 1017.55 1018.61 1019.42 1020.00 1020.49 1020.83 1021.21 1021.38 1021.53 1021.52 1021.54 1021.95 1022.02 1022.11 1021.65 1021.29 1021.09 1020.92 1021.00 1020.99 1020.56 1020.09 1019.64 1019.16 1018.60 1018.17 1017.70 1017.48 1016.91 1016.42 1015.99 1015.76 1015.49
1016.01 1015.91 1016.15 1016.60 1016.91 1017.11 1017.46 1017.43 1018.44 1018.62 1018.65 1019.23 1019.91 1020.21 1020.84 1021.25 1021.71 1021.75 1021.60 1021.53 1021.50 1021.58 1021.50 1021.55 1021.45 1021.04 1020.67 1020.64 1020.78 1020.77 1020.54 1020.19 1019.53 1018.83 1018.31 1017.88 1017.45 1016.79 1016.10 1015.59 1015.19 1015.00 1014.73
1017.43 1017.49 1017.72 1017.70 1017.97 1018.08 1018.37 1018.93 1019.32 1019.49 1019.78 1020.22 1020.58 1020.79 1021.29 1021.57 1022.02 1021.91 1021.61 1021.49 1021.39 1021.49 1021.35 1021.27 1020.98 1020.73 1020.60 1020.64 1020.95 1020.85 1020.41 1020.17 1019.57 1018.61 1018.32 1017.57 1017.01 1016.31 1015.66 1014.98 1014.47 1014.12 1013.77
1018.71 1018.84 1019.03 1019.08 1019.32 1019.74 1019.52 1019.79 1020.29 1020.18 1020.51 1020.81 1020.93 1021.15 1021.28 1021.46 1021.88 1021.62 1021.30 1021.18 1021.15 1021.03 1021.04 1021.12 1021.03 1020.74 1020.49 1020.40 1020.40 1020.19 1019.81 1019.43 1018.84 1018.13 1017.90 1017.08 1016.45 1015.89 1015.23 1014.45 1013.82 1013.37 1012.99
1019.52 1019.62 1019.93 1020.28 1020.37 1020.64 1020.76 1020.62 1020.73 1020.63 1021.05 1021.20 1021.21 1021.29 1021.16 1021.51 1021.69 1021.29 1021.00 1021.22 1020.91 1020.86 1020.98 1021.19 1020.99 1020.69 1020.49 1020.31 1020.16 1019.97 1019.54 1019.09 1018.58 1017.79 1017.43 1016.93 1015.88 1015.44 1014.82 1013.85 1013.11 1012.64 1012.40
1020.28 1020.45 1020.74 1020.91 1020.90 1020.94 1021.05 1021.02 1020.86 1020.93 1020.82 1020.93 1021.13 1021.28 1021.75 1021.73 1021.54 1021.40 1021.19 1020.97 1020.93 1020.72 1020.60 1020.55 1020.14 1019.85 1019.69 1019.55 1019.75 1019.68 1019.39 1019.30 1019.04 1018.00 1016.64 1017.09 1016.04 1015.76 1014.25 1013.06 1012.54 1012.20 1011.89
Thickness
5683 5682 5679 5676 5674 5672 5671 5669 5667 5664 5661 5660 5658 5657 5654 5653 5650 5647 5647 5642 5639 5636 5632 5629 5627 5624 5622 5620 5617 5616 5614 5612 5611 5611 5609 5609 5609 5608 5608 5609 5609 5610 5612
5682 5680 5677 5675 5672 5669 5667 5665 5663 5660 5657 5655 5653 5650 5648 5645 5644 5642 5642 5636 5632 5629 5626 5622 5618 5618 5615 5615 5612 5610 5607 5605 5603 5602 5602 5602 5602 5601 5602 5602 5602 5602 5603
5679 5677 5676 5673 5668 5665 5663 5661 5659 5655 5654 5651 5648 5645 5642 5640 5638 5636 5636 5634 5625 5622 5620 5616 5613 5611 5609 5607 5605 5603 5601 5599 5597 5595 5594 5593 5593 5593 5594 5595 5595 5595 5595
5676 5674 5673 5672 5667 5663 5660 5658 5655 5652 5650 5647 5644 5640 5638 5634 5632 5630 5628 5626 5623 5620 5613 5610 5605 5603 5601 5599 5598 5595 5594 5592 5591 5589 5587 5585 5585 5585 5585 5587 5588 5587 5587
5674 5671 5672 5670 5666 5661 5659 5656 5652 5649 5646 5643 5639 5634 5632 5630 5627 5625 5623 5620 5616 5613 5612 5604 5599 5596 5593 5591 5589 5589 5587 5585 5584 5583 5580 5579 5578 5577 5577 5578 5579 5580 5580
5671 5670 5668 5666 5665 5660 5656 5653 5648 5644 5643 5640 5634 5630 5627 5624 5623 5620 5618 5614 5610 5605 5603 5600 5594 5590 5587 5585 5581 5580 5580 5578 5576 5575 5575 5573 5572 5570 5569 5570 5571 5573 5574
5672 5667 5666 5665 5663 5660 5654 5650 5644 5640 5634 5633 5627 5624 5620 5618 5616 5615 5613 5611 5605 5600 5598 5594 5590 5586 5580 5576 5574 5573 5571 5570 5569 5568 5567 5566 5566 5565 5563 5563 5564 5565 5566
5669 5667 5666 5664 5661 5655 5651 5647 5642 5634 5632 5626 5626 5624 5621 5616 5614 5611 5609 5607 5603 5596 5592 5588 5583 5579 5577 5572 5568 5565 5563 5561 5560 5560 5559 5558 5557 5557 5556 5556 5556 5556 5558
5664 5664 5662 5659 5656 5652 5651 5645 5639 5632 5628 5620 5623 5624 5617 5621 5616 5608 5604 5601 5597 5590 5585 5581 5576 5570 5567 5564 5559 5556 5552 5550 5549 5549 5548 5548 5548 5548 5547 5547 5547 5548 5550
5658 5659 5657 5656 5652 5649 5649 5646 5638 5633 5627 5621 5612 5614 5613 5618 5615 5606 5596 5592 5588 5583 5577 5571 5567 5559 5555 5552 5546 5545 5542 5539 5538 5538 5537 5536 5538 5539 5540 5540 5540 5541 5542
5653 5650 5651 5648 5646 5644 5642 5638 5633 5629 5626 5619 5616 5610 5606 5603 5602 5600 5604 5587 5577 5572 5568 5564 5558 5553 5546 5543 5539 5534 5530 5529 5527 5526 5526 5526 5528 5528 5530 5530 5531 5532 5533
5646 5643 5640 5640 5639 5637 5634 5632 5626 5622 5620 5615 5609 5607 5606 5600 5596 5594 5589 5585 5578 5563 5555 5549 5546 5539 5535 5530 5526 5522 5519 5517 5515 5516 5515 5515 5516 5517 5517 5517 5518 5519 5520
5640 5637 5633 5631 5630 5630 5626 5620 5616 5612 5611 5608 5605 5601 5594 5590 5587 5585 5581 5568 5564 5551 5544 5538 5536 5528 5520 5516 5515 5507 5507 5504 5502 5504 5503 5502 5502 5502 5503 5504 5504 5506 5507
5634 5629 5627 5624 5621 5618 5615 5611 5609 5606 5601 5597 5593 5586 5579 5573 5570 5567 5562 5555 5543 5536 5530 5524 5518 5514 5506 5499 5497 5496 5495 5492 5491 5490 5491 5489 5488 5488 5489 5489 5490 5491 5492
5621 5618 5614 5610 5609 5606 5603 5599 5597 5594 5589 5585 5579 5571 5561 5557 5555 5549 5545 5539 5536 5527 5523 5512 5505 5496 5489 5485 5477 5481 5481 5482 5478 5477 5479 5476 5474 5474 5475 5475 5475 5475 5475
5602 5597 5596 5593 5590 5588 5586 5585 5583 5580 5573 5566 5560 5559 5547 5543 5538 5536 5529 5523 5511 5509 5505 5489 5482 5483 5475 5467 5466 5465 5466 5466 5466 5465 5463 5461 5459 5459 5459 5459 5459 5459 5459
5575 5573 5571 5568 5567 5565 5564 5562 5562 5559 5555 5549 5546 5539 5534 5530 5521 5518 5510 5504 5495 5493 5483 5474 5468 5464 5463 5455 5453 5454 5455 5453 5452 5452 5447 5445 5444 5444 5444 5443 5442 5441 5440
5551 5548 5546 5545 5542 5541 5540 5539 5539 5538 5538 5535 5529 5523 5522 5511 5506 5500 5494 5484 5481 5474 5467 5462 5456 5452 5454 5442 5439 5439 5444 5441 5437 5434 5430 5428 5426 5425 5424 5422 5421 5420 5419
5529 5526 5524 5523 5520 5518 5516 5514 5515 5517 5515 5513 5508 5507 5501 5494 5488 5482 5477 5472 5465 5458 5452 5449 5443 5444 5438 5436 5430 5427 5428 5426 5422 5416 5414 5410 5409 5407 5404 5401 5401 5399 5395
5507 5505 5499 5497 5492 5489 5490 5490 5491 5497 5495 5492 5487 5484 5480 5478 5474 5469 5463 5458 5452 5447 5444 5438 5437 5436 5430 5425 5418 5414 5415 5411 5407 5401 5398 5395 5390 5387 5382 5380 5378 5374 5369
5487 5485 5480 5475 5469 5469 5468 5468 5469 5477 5479 5475 5471 5469 5466 5464 5459 5456 5453 5450 5446 5438 5434 5428 5427 5425 5419 5415 5407 5400 5397 5397 5391 5383 5383 5377 5372 5366 5362 5358 5353 5350 5348
5475 5473 5467 5457 5451 5450 5449 5454 5451 5458 5463 5462 5460 5461 5455 5450 5445 5442 5441 5436 5432 5427 5424 5418 5411 5409 5407 5399 5391 5383 5378 5372 5368 5359 5361 5354 5346 5346 5342 5340 5340 5339 5337
5463 5457 5450 5446 5442 5440 5441 5442 5442 5446 5448 5447 5447 5446 5442 5438 5432 5430 5428 5423 5419 5413 5410 5405 5402 5396 5389 5380 5370 5360 5354 5347 5341 5340 5338 5338 5332 5333 5331 5330 5332 5332 5331
5452 5445 5438 5434 5432 5431 5435 5436 5435 5438 5438 5438 5438 5435 5432 5429 5422 5421 5418 5414 5410 5405 5400 5392 5385 5378 5371 5361 5351 5342 5337 5332 5327 5324 5324 5330 5324 5325 5323 5322 5324 5324 5321
5446 5441 5434 5429 5428 5427 5426 5429 5430 5432 5429 5428 5427 5425 5423 5419 5414 5415 5412 5403 5400 5394 5384 5375 5367 5358 5349 5341 5335 5329 5325 5323 5321 5318 5318 5319 5321 5322 5318 5317 5317 5314 5310
5440 5435 5429 5426 5426 5426 5425 5425 5427 5426 5426 5424 5421 5418 5412 5408 5406 5403 5399 5394 5387 5380 5371 5361 5354 5346 5340 5335 5327 5320 5316 5310 5305 5308 5316 5309 5310 5309 5319 5315 5312 5306 5303